User: anonymous   Login
Location: Dappach
(48.9767°N, 9.6998°E)
Time: 23:38:09
(UTC+00:00)
Language:

Cosmos 1709 Rocket - Orbit

View from above orbital plane
View from above orbital plane
View from above satellite
View from above satellite

Ground track
Ground track

The orbit data is extracted from the following two-line orbital elements,

1 16369U 85116B   24194.59151968  .00000159  00000-0  14405-3 0  9992
2 16369  82.9350 227.5660 0037456 130.5240 340.8985 13.77037998937046
Epoch (UTC): 12 July 2024 14:11:47
Eccentricity: 0.0037456
inclination: 82.9350°
perigee height: 947 km
apogee height: 1002 km
right ascension of ascending node: 227.5660°
argument of perigee: 130.5240°
revolutions per day: 13.77037998
mean anomaly at epoch: 340.8985°
orbit number at epoch: 93704

The dashed part of the orbit path shows where the satellite is in the earth's shadow,  

DLR